This is the latest recevied weather packets stored in our database for station/object DB0RV-13. If no packets are shown the sender has not sent any weather packets the latest 1 day(s).
| Time | Temp. | Humidity | Pressure | Rain* | Wind** | Luminosity | Snow |
|---|---|---|---|---|---|---|---|
| 1778016602 | 10° C | 90% | 1009 hPa | - | 0.89 m/s, 244° | - | - |
| 1778016301 | 10.56° C | 90% | 1008.9 hPa | - | 1.34 m/s, 248° | - | - |
| 1778016002 | 10° C | 90% | 1009 hPa | - | 1.79 m/s, 266° | - | - |
| 1778015702 | 10° C | 90% | 1009 hPa | - | 0.89 m/s, 243° | - | - |
| 1778015401 | 10° C | 90% | 1009 hPa | - | 1.79 m/s, 239° | - | - |
| 1778015102 | 10.56° C | 89% | 1008.9 hPa | - | 1.34 m/s, 239° | - | - |
| 1778014802 | 10.56° C | 90% | 1008.9 hPa | - | 2.68 m/s, 218° | - | - |
| 1778014501 | 10.56° C | 90% | 1008.9 hPa | - | 1.34 m/s, 241° | - | - |
| 1778014202 | 10.56° C | 90% | 1009 hPa | - | 1.34 m/s, 222° | - | - |
| 1778013902 | 10.56° C | 90% | 1009 hPa | - | 1.79 m/s, 247° | - | - |
| 1778013601 | 10.56° C | 90% | 1009.1 hPa | - | 1.79 m/s, 256° | - | - |
| 1778013302 | 10.56° C | 90% | 1009.1 hPa | - | 1.79 m/s, 243° | - | - |
| 1778013002 | 10.56° C | 91% | 1009.1 hPa | - | 1.79 m/s, 217° | - | - |
| 1778012702 | 10.56° C | 90% | 1009.1 hPa | - | 2.24 m/s, 243° | - | - |
| 1778012402 | 10.56° C | 90% | 1009 hPa | - | 1.34 m/s, 233° | - | - |
| 1778012102 | 10.56° C | 89% | 1009.1 hPa | - | 1.34 m/s, 227° | - | - |
| 1778011802 | 11.11° C | 87% | 1009 hPa | - | 1.79 m/s, 217° | - | - |
| 1778011502 | 11.11° C | 86% | 1009 hPa | - | 1.34 m/s, 245° | - | - |
| 1778011203 | 11.11° C | 86% | 1009 hPa | - | 1.79 m/s, 238° | - | - |
| 1778010902 | 11.11° C | 87% | 1008.9 hPa | - | 1.34 m/s, 227° | - | - |
| 1778010602 | 11.11° C | 88% | 1008.9 hPa | - | 0.89 m/s, 222° | - | - |
| 1778010302 | 11.11° C | 89% | 1009 hPa | - | 0.89 m/s, 233° | - | - |
| 1778010002 | 11.11° C | 89% | 1009 hPa | - | 0.45 m/s, 272° | - | - |
| 1778009702 | 11.11° C | 90% | 1009 hPa | - | 1.34 m/s, 214° | - | - |
| 1778009402 | 11.11° C | 90% | 1008.8 hPa | - | 1.34 m/s, 184° | - | - |
* Rain since midnight (hover to see other rain measurements)
** Current wind speed in m/s (hover to see current wind gust speed)